Location: Unspecified
(0.0000°N, 0.0000°E)
Time: 11:14:48
(UTC+00:00)

A-11 Canister half - Pass Details

Date: 25 November 2019
Orbit: 1515 x 1685 km, 47.2° (Epoch: 13 December)

Event Time Altitude Azimuth Distance (km) Brightness Sun altitude
Exits shadow 02:56:13 24° 207° (SSW) 2,830 10.3 -39.3°
Drops below altitude 10° 03:01:18 10° 175° (S) 3,733 11.3 -38.2°
Sets 03:05:03 0° 163° (SSE) 4,696 12.1 -37.4°
